Theta_e
327 318 311 316 307 308 306 301 295 291 293 289 283 290 294 295 296 297 297 299 298 300 301 302 301 302 301 300 303 299 303 304 301 295 292 301 322 334 332 334 336 336 334 333 334 336 335 340 339 340 343 346 345 346 346 345 343 341 340 340 339 339 343 344 345 344 344 345 344 343 343 343 342 342 343 344 343 344 343 342 342 342 341 342 343 344 344 345 344 344 345 345 345 345 344 343 343
322 311 310 311 310 305 302 295 289 284 284 285 287 288 289 292 297 296 297 296 296 301 303 309 310 310 309 308 306 307 305 311 303 312 321 327 335 333 334 335 336 335 334 333 333 331 330 337 342 342 340 345 346 346 346 346 342 340 340 338 336 336 339 340 344 345 345 346 344 342 342 344 344 344 344 343 343 343 343 343 342 342 342 342 345 345 344 344 344 344 344 344 345 344 343 343 342
318 313 311 310 309 301 298 295 294 281 284 284 282 288 290 294 295 296 297 296 298 306 308 308 306 305 306 305 302 302 299 320 319 320 325 333 329 331 335 335 336 335 333 331 331 331 330 335 341 341 340 344 345 346 345 344 341 341 340 336 335 338 341 341 342 343 345 345 345 344 344 344 345 345 344 344 344 344 344 342 341 341 342 342 343 344 344 344 343 344 344 344 344 344 343 342 342
313 313 308 305 306 299 294 289 286 284 289 281 282 287 289 295 296 297 296 296 306 303 301 304 305 306 305 301 302 309 309 314 321 325 324 328 329 335 335 337 338 335 332 331 331 330 332 337 341 342 343 345 345 345 345 345 341 341 338 338 338 337 340 340 341 341 344 345 345 345 345 345 344 344 345 344 344 344 344 343 341 342 343 343 343 343 342 342 342 344 344 344 344 343 343 342 342
311 314 306 301 299 300 290 289 285 284 287 283 289 288 290 292 297 296 300 301 304 298 299 304 306 309 308 307 308 304 303 315 321 327 329 330 336 336 337 338 337 334 332 332 332 331 332 340 342 344 344 345 344 345 345 345 343 340 339 338 336 336 337 339 341 341 344 345 345 345 345 344 344 344 344 343 344 344 343 343 343 342 342 342 343 343 345 344 344 344 344 343 344 343 342 342 342
308 309 309 304 301 301 294 290 290 288 288 286 290 289 290 292 297 296 301 301 301 298 299 302 304 304 310 312 311 304 311 312 319 324 331 330 336 338 338 338 336 333 331 330 331 330 329 339 340 343 341 342 344 344 344 345 343 340 340 338 336 336 336 340 342 341 343 344 344 344 344 344 344 343 343 342 342 343 343 343 342 342 342 343 343 343 344 344 344 343 343 343 343 342 342 341 341
311 302 300 301 297 297 291 285 284 285 291 290 294 291 292 292 298 299 299 301 301 301 299 305 306 306 304 307 312 315 316 320 322 321 331 333 337 338 338 338 336 333 332 330 330 329 330 339 342 343 344 343 343 344 345 345 344 341 340 338 336 336 337 336 342 344 343 343 344 344 344 344 343 343 342 342 342 342 342 341 341 342 341 342 343 343 343 343 343 343 342 343 342 342 342 341 341
310 305 300 292 289 292 287 285 286 286 290 291 290 293 293 294 296 300 299 298 299 301 304 306 306 302 303 309 307 315 316 319 319 325 333 336 337 337 338 337 334 334 334 330 330 329 338 339 342 343 343 342 343 343 345 344 345 341 340 338 336 337 336 336 339 342 342 342 344 344 343 342 342 342 341 341 341 341 341 341 341 341 340 341 341 342 341 341 342 342 342 342 341 341 340 341 340
306 304 300 296 292 287 283 288 287 287 289 289 291 292 302 296 300 300 297 297 298 298 305 308 304 300 300 306 303 312 315 319 324 332 334 336 335 337 337 335 333 333 334 332 330 330 332 338 341 343 342 342 342 343 344 344 344 341 340 339 337 337 337 337 337 340 342 343 343 342 342 342 341 341 341 340 340 340 340 340 340 340 340 340 340 341 341 341 341 340 341 341 340 340 340 340 340
303 302 295 292 288 290 283 283 287 287 290 289 291 295 297 298 298 299 299 297 298 301 306 300 300 300 304 305 306 312 316 325 331 332 335 336 336 337 336 335 334 334 335 334 330 331 332 341 339 340 341 342 343 342 344 343 343 342 342 340 337 336 336 336 337 338 341 342 341 341 340 340 340 339 339 339 339 339 339 339 340 340 339 339 340 340 340 340 340 341 340 340 339 339 339 339 339
299 299 296 296 287 286 287 283 283 288 288 288 291 293 296 299 299 297 297 298 298 303 302 302 303 304 307 308 306 311 317 327 331 330 335 336 336 335 335 335 335 335 334 335 331 331 333 334 339 337 339 340 342 343 343 343 342 341 340 339 337 336 336 335 337 338 342 341 340 340 339 339 340 340 340 340 340 340 339 340 340 340 339 339 339 339 339 339 339 341 340 339 339 339 339 339 338
298 295 295 286 286 286 283 286 284 288 290 289 297 299 297 300 298 298 297 299 298 298 301 303 301 307 305 303 307 312 321 328 330 333 335 336 335 335 335 336 335 335 335 335 334 332 335 334 333 338 336 337 338 340 341 342 341 339 339 337 337 337 336 336 336 338 341 341 341 341 341 341 340 340 339 339 340 340 339 339 339 339 338 339 339 339 339 339 339 340 339 338 338 338 338 338 338
295 296 290 290 287 287 285 288 287 290 288 287 296 299 298 299 298 297 296 298 297 297 299 301 308 306 300 303 306 310 320 327 330 334 335 334 334 335 336 335 335 335 336 336 336 337 337 333 332 333 333 334 334 335 336 338 339 339 339 337 338 339 339 338 339 339 340 340 341 340 340 339 339 338 339 339 340 339 338 338 338 338 338 338 338 338 338 338 338 339 338 337 337 337 337 337 336
299 296 294 294 286 286 286 286 284 289 287 290 289 295 299 299 298 296 296 298 296 298 300 299 310 306 304 304 306 311 318 325 331 334 334 333 333 334 335 335 334 334 335 336 337 338 337 332 331 330 331 331 330 332 333 335 337 339 338 337 337 340 341 341 341 341 341 340 339 338 339 339 339 338 338 338 338 338 338 338 338 336 337 336 337 337 337 337 337 337 337 336 336 335 335 335 335
305 296 292 289 286 287 286 290 289 285 286 289 295 297 297 299 294 294 300 297 299 299 303 309 309 300 295 302 299 314 319 324 331 333 332 331 332 334 334 334 333 332 334 336 337 337 336 334 334 331 328 329 329 328 328 332 333 335 335 335 336 339 339 338 337 336 336 336 336 335 335 334 333 333 333 334 335 334 333 331 334 336 336 336 336 336 337 337 337 336 335 335 334 334 334 333 333
302 295 292 292 287 287 289 289 286 286 289 288 293 295 299 298 293 297 297 301 299 301 303 307 306 300 302 301 303 315 321 325 331 331 330 330 332 334 333 332 332 332 332 335 336 337 337 336 336 334 332 331 329 327 327 328 330 331 333 334 334 335 334 334 333 332 329 328 328 329 328 327 327 326 327 326 329 331 330 328 332 336 336 336 336 336 335 335 336 335 334 333 333 332 331 331 331
305 301 293 285 288 287 288 290 289 290 288 289 288 295 300 299 295 297 295 298 300 303 306 308 303 311 307 304 311 317 323 326 328 329 329 329 331 330 331 331 331 330 331 333 334 336 337 336 336 335 335 333 333 331 328 327 329 329 329 329 329 329 330 330 329 325 323 322 322 322 323 321 320 320 320 320 323 322 322 325 329 334 336 336 335 334 335 334 335 335 334 333 331 328 325 324 324
305 298 288 288 288 288 291 292 292 292 293 293 291 292 299 297 294 298 301 299 301 303 305 305 309 308 310 309 312 321 324 326 328 328 328 327 329 328 328 330 329 328 329 331 333 335 336 336 336 336 335 336 335 333 331 326 326 329 326 325 324 325 326 325 323 322 325 319 321 320 319 320 318 317 319 325 320 321 322 323 325 330 334 334 334 334 333 333 333 334 333 331 329 325 319 314 315
299 292 291 291 289 294 296 293 294 293 295 293 291 291 296 299 294 296 297 295 301 301 302 305 307 308 312 315 320 322 324 325 327 328 327 327 328 327 328 328 328 328 327 330 331 333 335 336 336 336 336 336 335 334 333 331 330 330 327 323 323 324 323 321 320 320 318 319 317 317 317 317 316 316 316 318 318 320 321 323 325 328 330 330 331 332 332 332 332 331 329 327 325 320 314 312 313
299 296 291 289 294 296 295 292 294 294 293 293 293 292 292 293 295 296 297 294 298 298 298 300 304 307 309 314 319 321 324 325 327 328 327 327 328 328 328 327 328 328 327 328 329 332 334 335 335 336 335 335 335 334 333 331 331 330 326 322 322 320 319 319 318 317 318 317 317 316 317 315 315 316 323 324 322 317 318 319 321 322 323 323 322 321 322 323 325 324 325 321 316 312 311 312 311
299 296 291 293 295 296 298 294 292 291 294 293 292 291 293 293 293 296 293 296 296 299 299 302 303 307 313 317 319 320 322 324 326 327 327 327 329 330 330 329 329 329 329 329 328 329 332 334 334 335 336 335 335 334 332 331 331 330 328 324 321 319 319 318 318 318 316 316 316 317 315 315 316 316 316 315 315 316 317 318 317 317 316 316 317 314 311 309 310 308 311 313 311 312 312 311 312
300 296 297 296 294 295 298 295 292 290 291 293 290 293 293 293 293 294 296 296 296 300 303 302 303 309 315 317 318 320 322 323 325 325 326 327 327 328 330 330 331 330 329 328 328 329 331 334 334 334 335 335 334 333 332 331 330 329 328 326 322 321 319 318 317 318 317 316 316 316 316 316 316 317 315 313 313 315 316 315 314 313 313 313 314 312 309 308 308 308 309 311 311 310 311 310 309
297 296 296 297 293 295 295 293 292 291 292 292 292 293 293 294 293 292 296 298 298 292 294 302 304 313 317 320 319 319 321 322 324 324 325 326 327 329 329 330 329 328 328 328 329 330 331 333 333 334 333 333 334 333 333 331 330 330 329 327 324 322 321 319 318 317 318 317 316 316 318 316 316 316 315 314 315 312 314 314 315 313 313 313 312 312 308 308 308 310 310 310 309 311 309 305 307
298 298 295 297 298 297 294 294 291 290 292 293 293 295 295 293 293 292 295 299 298 292 295 300 310 316 319 319 319 320 321 322 323 324 325 326 327 328 330 330 330 331 329 328 329 331 330 331 332 334 332 332 332 333 332 330 330 330 329 327 326 323 321 321 319 319 318 317 317 317 316 317 317 315 315 314 313 311 313 312 312 313 312 312 312 310 309 308 308 308 309 309 310 308 309 305 306
300 298 295 294 295 295 293 292 291 290 290 291 292 295 295 293 292 291 293 299 297 295 307 311 314 316 317 318 318 319 320 321 321 322 322 324 327 329 330 331 331 331 329 329 329 330 331 331 332 332 332 331 332 333 331 330 330 329 329 328 326 322 322 322 321 319 318 317 317 317 316 317 314 316 315 315 311 314 312 312 312 313 311 311 312 311 309 306 306 307 309 307 306 306 305 307 305
296 294 294 294 295 296 295 292 292 291 289 290 293 293 293 290 291 293 295 295 293 302 309 311 313 315 316 317 318 319 319 320 321 321 322 322 325 327 328 329 330 330 330 330 329 329 331 332 332 331 332 332 332 333 331 330 330 328 329 328 328 324 323 321 319 319 319 318 317 317 317 318 318 317 315 312 313 313 312 311 312 312 312 311 311 313 307 306 306 305 306 307 309 307 308 306 305
297 295 292 294 296 296 295 295 292 292 293 290 293 292 292 292 293 293 293 294 298 307 308 308 312 313 315 316 317 319 319 319 320 322 320 320 321 325 327 328 329 330 330 330 330 330 330 332 331 331 332 331 332 332 331 330 330 329 329 328 328 327 324 321 320 320 319 319 319 317 317 317 317 317 316 315 314 313 311 311 312 310 311 310 310 312 307 309 306 307 307 307 306 305 306 306 306
297 295 294 295 295 295 295 294 293 292 294 290 293 292 291 291 292 294 297 293 298 303 307 310 310 312 314 315 316 318 318 320 321 320 320 319 320 324 326 327 328 329 329 330 331 331 330 331 332 332 332 332 331 332 331 331 330 330 329 329 328 327 326 322 321 320 319 320 319 318 317 317 316 317 316 315 315 313 311 311 310 310 313 309 310 310 310 307 307 307 307 307 307 307 306 305 304
299 296 295 295 295 295 295 295 294 292 294 291 292 292 289 289 290 296 295 294 295 298 306 309 310 310 311 314 315 316 317 318 319 320 321 322 322 324 325 327 328 328 330 330 331 330 330 331 331 332 332 331 331 331 331 331 331 330 329 329 328 327 327 323 321 321 321 320 320 319 318 318 317 318 316 316 315 314 313 311 311 311 312 311 310 309 308 307 307 307 308 306 307 307 306 307 305
299 298 293 294 292 292 295 292 291 291 294 291 293 290 289 289 294 297 294 298 295 297 302 308 309 309 310 312 314 315 316 316 317 320 322 322 322 323 323 325 326 328 328 329 330 329 330 331 332 333 332 331 330 332 332 331 331 331 330 330 328 328 326 325 323 322 322 321 320 320 318 318 317 318 317 315 315 314 313 312 313 312 312 309 309 308 309 309 309 307 308 308 308 307 307 306 305
293 295 296 292 292 289 292 294 291 293 292 290 293 290 288 288 292 296 293 298 296 295 298 304 308 308 309 311 313 315 316 318 319 320 321 322 323 323 323 324 324 325 325 325 327 328 328 329 331 333 331 332 330 331 331 332 332 331 331 330 329 328 327 325 323 322 322 322 321 320 319 318 317 317 317 317 315 314 313 312 311 314 312 309 309 309 310 307 307 310 307 307 305 305 304 303 304
297 293 290 290 290 290 291 292 293 294 293 291 293 287 290 292 294 294 294 299 295 295 295 299 305 308 309 310 312 314 316 317 318 318 319 321 322 323 323 323 323 324 325 325 326 326 326 327 329 331 331 332 331 331 332 333 332 332 331 327 330 329 327 326 324 323 323 323 322 321 320 320 319 318 318 317 316 314 314 314 314 313 311 309 310 307 307 310 309 309 306 307 307 307 304 306 304
294 292 287 289 288 290 291 293 292 293 291 293 292 289 284 289 293 292 290 298 297 296 295 295 301 306 308 310 312 313 314 314 315 317 318 320 321 322 323 323 323 324 325 325 325 325 325 326 326 329 331 332 332 332 332 332 332 332 331 330 330 329 328 327 326 325 324 324 323 323 324 323 322 321 320 319 318 315 314 314 314 313 310 310 310 307 308 310 309 310 307 304 306 307 305 306 308
288 290 288 289 290 288 289 294 294 292 292 291 290 287 286 289 289 291 291 293 296 296 296 296 298 303 308 309 310 312 313 314 314 316 318 319 320 321 322 321 323 323 323 324 325 325 325 326 326 327 330 331 332 332 332 332 332 332 331 330 328 329 329 329 328 328 326 325 325 325 326 325 323 323 322 320 319 318 316 315 314 312 311 310 310 308 310 307 306 309 310 304 306 306 306 309 310
289 287 286 288 288 289 292 292 295 291 292 290 289 287 288 291 294 294 290 291 293 295 297 296 296 298 302 306 308 310 311 312 314 317 318 319 319 320 321 322 323 323 324 323 324 325 325 326 325 324 326 328 330 332 331 332 332 331 331 330 329 329 329 329 329 328 327 327 326 326 327 326 324 324 323 320 320 319 316 313 313 310 310 310 311 310 308 306 306 305 307 307 305 309 312 312 311
293 291 290 289 289 289 287 293 295 292 290 289 288 288 288 291 293 296 292 290 292 293 294 292 291 296 298 301 304 307 310 311 315 315 316 317 319 320 321 322 322 323 323 324 322 323 324 325 324 325 325 327 328 330 331 330 330 328 326 328 328 327 329 327 328 328 328 327 327 327 328 328 326 324 323 322 321 319 317 314 313 309 310 310 310 310 309 308 309 307 308 309 310 310 310 312 310
294 292 290 290 290 290 290 289 291 291 290 289 290 289 288 290 292 294 297 291 290 290 291 293 293 292 295 298 300 303 306 309 312 312 313 314 316 318 320 321 321 321 322 323 322 322 323 324 323 322 324 325 327 328 329 329 326 326 328 327 326 328 328 328 327 328 328 328 327 327 327 327 327 325 323 322 321 318 318 316 313 310 310 311 311 312 313 312 312 312 311 311 312 311 310 309 307
293 291 289 289 287 288 289 288 290 291 290 287 288 288 289 289 291 293 295 290 292 292 292 292 292 293 293 295 298 299 303 304 302 305 306 308 313 315 318 320 318 319 320 321 322 322 323 323 323 323 323 324 326 328 329 329 330 329 327 328 328 328 328 326 327 328 328 327 327 327 327 327 327 326 323 323 321 321 320 318 315 314 312 312 313 314 312 309 311 311 312 311 310 311 309 306 305
291 291 288 288 288 287 289 290 291 291 290 288 289 288 289 289 291 293 294 293 294 294 294 294 293 293 292 292 293 296 298 299 300 303 303 306 309 312 316 318 319 320 320 320 322 322 322 322 323 323 324 324 325 326 328 328 330 330 330 329 329 327 328 330 330 329 328 328 327 327 327 327 327 326 325 323 323 322 321 320 319 317 313 313 313 313 311 309 310 310 311 313 309 307 308 305 304
289 287 286 288 288 289 287 291 290 291 289 288 286 285 288 289 290 291 294 293 292 292 292 293 292 293 293 293 294 295 295 297 298 300 301 303 306 310 313 316 318 319 319 320 320 321 322 322 323 323 324 324 324 325 324 328 328 329 329 327 328 329 327 324 328 328 328 328 327 328 327 327 327 326 326 324 323 323 322 321 320 318 316 313 314 314 311 310 308 308 310 311 311 307 305 307 304
290 289 287 285 286 288 288 287 289 290 289 290 288 287 288 288 288 290 293 292 292 294 290 291 291 291 294 293 292 293 294 296 298 299 298 301 303 306 310 313 316 317 319 320 320 320 322 322 323 323 324 324 324 324 324 326 324 322 324 320 319 321 320 325 326 326 327 326 327 327 327 327 327 326 327 326 324 324 323 322 320 319 317 315 315 315 314 313 311 311 311 310 311 312 308 304 304
289 289 289 288 288 288 289 290 288 286 286 289 288 282 286 288 288 290 293 289 288 289 290 292 293 292 291 291 293 294 294 295 297 298 299 299 302 305 307 309 312 315 317 320 321 321 321 322 323 323 324 324 324 324 325 325 324 325 323 323 320 322 322 321 321 324 326 326 326 328 327 327 327 326 327 327 325 323 324 323 321 319 317 315 314 315 316 313 310 309 311 313 311 311 311 304 305
288 289 291 290 290 290 290 289 289 283 282 289 289 285 284 284 286 288 289 290 291 292 290 291 292 293 292 292 293 293 294 295 295 296 296 296 299 302 304 308 311 313 316 318 319 320 321 322 322 323 324 324 324 323 324 322 324 324 325 325 325 324 323 324 326 327 327 328 327 326 327 327 327 327 326 327 326 324 324 323 322 320 319 317 314 315 315 314 313 313 312 311 311 308 307 309 309
287 290 292 290 289 289 289 290 288 285 287 288 286 286 282 283 289 288 286 286 288 289 291 290 290 291 292 293 293 293 295 295 296 296 296 296 297 299 302 306 309 312 314 316 318 320 320 321 321 322 323 322 324 323 323 323 324 324 324 325 325 325 325 325 326 325 324 324 325 326 326 326 327 327 327 326 326 325 323 323 322 321 320 319 315 315 315 314 313 312 312 312 309 309 310 311 309
288 290 292 290 290 290 290 289 286 284 283 281 284 284 281 283 285 284 284 287 287 287 289 291 291 291 292 293 294 294 295 296 296 297 296 295 296 297 300 302 307 310 312 314 316 318 320 321 320 321 322 322 322 322 321 322 323 324 324 324 324 324 325 324 319 317 321 322 324 325 325 325 325 326 327 326 326 325 322 323 322 321 321 320 314 315 313 313 314 313 311 310 310 309 311 311 309
290 293 294 292 292 291 290 286 286 285 281 281 283 283 281 284 282 287 285 285 288 289 288 290 291 292 293 294 294 295 296 296 296 296 297 296 295 296 297 298 300 308 311 313 314 315 317 319 319 319 320 322 322 321 320 321 322 321 323 323 323 323 322 319 315 316 318 320 323 324 324 325 325 325 326 326 325 325 324 322 322 322 321 320 314 316 315 314 314 313 312 312 311 310 309 308 309
292 292 291 290 288 286 285 285 285 284 279 282 284 283 282 278 282 287 285 289 291 287 288 288 287 288 290 292 294 295 296 296 295 294 293 293 292 293 293 296 299 301 307 311 312 313 315 317 318 318 320 321 320 321 320 320 321 322 322 322 322 322 321 320 317 315 316 318 321 322 323 324 324 324 324 324 325 325 324 321 322 322 321 316 315 316 315 314 313 313 313 311 310 310 308 308 306
293 289 288 288 285 285 284 283 285 279 279 283 285 284 282 279 281 284 289 285 284 291 291 293 293 290 291 292 293 293 293 293 293 292 293 293 292 291 290 295 296 298 303 308 311 312 313 315 316 317 318 319 320 320 320 320 321 321 322 322 322 322 321 320 319 318 317 318 319 321 321 322 322 323 323 323 323 323 322 322 319 321 319 319 317 317 316 315 313 313 312 311 310 309 307 306 307
292 290 289 284 280 281 277 280 277 278 278 281 277 282 282 281 287 285 285 287 287 285 287 291 292 291 289 289 290 292 291 291 292 292 293 293 293 293 292 294 294 296 301 306 309 311 312 314 315 316 317 318 319 319 319 319 320 320 321 321 322 321 321 320 319 318 317 316 318 319 319 320 321 320 321 321 322 322 321 321 320 320 319 318 317 317 315 314 313 312 311 309 309 307 307 306 305
289 288 286 283 278 276 275 278 274 273 278 280 279 282 282 288 286 289 292 295 291 288 287 288 290 291 290 290 290 289 290 290 292 292 292 293 294 294 294 294 295 296 298 302 306 309 311 312 314 315 317 318 318 318 319 319 319 320 321 321 322 321 321 321 320 319 318 316 317 318 319 320 320 320 320 321 322 321 321 321 320 320 320 318 316 315 314 313 311 311 309 309 307 307 305 305 304
289 291 289 284 281 276 274 275 275 276 278 279 280 279 279 280 285 286 293 295 298 293 290 289 288 289 291 289 289 290 290 291 293 294 293 293 294 294 294 294 294 295 296 299 303 306 309 310 312 313 315 315 316 317 318 318 319 320 320 320 321 321 321 320 320 319 318 315 314 316 318 319 320 320 321 321 319 320 320 320 319 319 318 317 315 313 312 311 310 308 307 307 306 304 303 302 300
288 289 289 284 283 282 276 273 277 275 275 274 276 280 281 284 286 288 287 287 288 289 289 287 289 290 289 290 291 292 293 294 293 294 295 294 293 291 292 293 294 294 295 296 299 303 306 309 310 312 313 315 315 315 317 318 319 319 319 319 319 318 316 318 317 314 316 316 314 315 315 317 319 320 320 319 318 319 319 319 317 317 316 315 314 313 311 309 308 308 306 304 303 302 301 300 299
286 288 285 286 287 285 278 277 279 274 273 277 275 279 283 282 290 294 291 286 288 287 288 288 289 289 288 291 293 293 294 294 294 295 296 296 292 292 292 292 293 294 294 296 298 301 304 306 308 309 311 311 313 313 315 316 317 316 317 318 318 317 317 317 318 315 314 313 313 313 313 314 316 318 318 317 317 318 319 318 316 315 313 313 313 311 310 309 308 307 305 304 303 300 301 301 300
288 283 287 288 287 286 283 277 274 273 272 274 274 280 280 278 281 287 292 288 289 288 288 289 289 287 288 291 292 293 294 294 294 294 295 295 294 294 293 293 294 295 295 295 296 297 300 303 305 307 308 309 310 311 312 314 314 315 315 316 316 317 317 317 317 314 312 311 311 311 310 310 313 315 316 315 316 316 316 311 315 313 311 311 311 310 309 308 306 305 305 305 304 301 301 299 300
289 287 291 288 280 281 280 277 273 270 270 269 271 276 277 280 285 282 284 289 292 293 291 287 289 289 289 290 292 292 293 292 292 293 294 294 293 293 293 294 294 294 295 296 295 296 296 296 300 303 306 308 309 310 310 311 313 314 315 314 314 315 316 316 314 312 311 311 311 310 310 311 310 309 311 313 313 313 313 312 313 310 308 308 308 308 307 306 305 304 302 302 300 302 301 299 296
287 288 289 287 284 282 278 281 274 276 273 270 271 272 279 284 282 285 287 284 288 290 289 289 289 290 292 292 293 293 292 291 291 292 293 293 293 292 293 294 294 295 294 295 294 293 295 296 296 298 298 300 301 305 306 309 310 311 311 310 311 313 313 315 313 312 311 311 311 310 310 308 309 307 310 311 312 311 310 309 307 308 306 305 305 304 305 304 303 304 301 301 299 301 300 299 295
284 284 285 285 284 283 282 280 280 278 268 267 269 271 279 281 285 287 290 291 291 289 290 289 290 291 291 291 291 292 291 290 290 290 290 290 291 291 291 292 293 292 293 293 295 296 297 296 296 297 299 300 302 304 305 307 307 309 309 310 310 311 312 312 311 311 311 311 311 308 310 310 307 306 307 307 308 309 308 307 305 304 305 304 304 302 302 302 302 301 300 301 298 299 300 297 296
288 287 285 287 284 281 280 278 279 274 275 271 268 275 282 280 285 290 290 293 294 295 292 292 290 289 289 289 289 288 290 290 288 288 288 290 289 290 289 290 289 290 291 292 294 294 295 296 298 298 299 300 302 303 304 306 306 308 308 309 309 308 310 310 311 311 311 310 309 307 307 304 305 305 305 306 306 306 306 306 305 304 303 302 302 303 300 302 301 301 299 300 298 298 299 297 296
Wind_Speed
6 5 3 1 3 2 2 7 0 3 2 1 1 0 1 0 1 1 1 1 2 1 1 1 7 6 3 5 10 5 1 8 6 7 3 1 2 6 4 7 8 7 7 5 5 4 5 8 11 10 11 11 11 11 10 9 11 11 10 9 8 9 12 11 10 10 10 12 13 12 12 11 13 14 14 15 15 14 14 15 15 14 15 15 16 16 16 16 17 16 16 17 17 17 17 17 17
3 4 3 0 1 2 1 2 4 4 5 2 3 0 2 1 1 4 6 4 3 1 1 4 5 6 7 6 6 4 1 1 4 1 1 2 5 5 5 9 9 10 6 5 4 4 4 5 9 9 11 11 11 12 11 9 11 11 10 10 8 9 10 11 11 10 10 11 13 12 12 13 13 14 14 15 14 15 15 15 14 15 15 15 16 16 16 17 16 16 15 16 17 17 16 16 17
3 5 1 4 3 5 2 4 2 1 2 1 3 5 2 2 4 4 7 4 2 1 4 4 4 3 1 2 1 0 3 1 1 1 2 5 12 5 6 7 7 7 6 4 4 4 3 4 8 9 10 10 11 11 11 10 11 10 10 9 8 9 11 9 10 10 12 11 12 13 13 13 13 13 15 14 14 14 15 14 14 14 14 15 16 16 16 15 15 15 15 16 16 16 16 16 16
1 4 1 2 2 4 1 4 4 2 1 2 3 3 2 4 6 5 3 3 6 2 0 1 3 1 1 1 1 3 1 0 3 4 6 8 2 7 8 8 7 5 4 4 4 3 3 5 7 8 10 10 11 12 11 8 10 11 10 7 8 9 11 9 9 9 11 11 12 13 14 13 14 15 15 14 14 14 15 14 14 14 15 15 15 15 15 15 15 16 16 16 17 16 16 16 17
2 1 3 3 2 1 2 1 4 3 1 4 2 4 4 4 4 3 1 5 5 1 2 1 3 1 1 1 0 0 1 0 2 3 3 2 5 7 9 9 8 6 5 4 4 4 3 6 6 5 12 11 11 11 10 9 9 12 10 9 7 6 9 10 9 9 11 12 12 12 14 14 14 15 14 14 14 15 15 14 13 14 14 15 15 15 15 15 15 15 16 16 16 16 16 17 16
2 1 3 2 1 2 4 1 1 1 6 5 0 1 4 5 5 4 4 3 3 1 2 0 2 3 0 1 2 0 2 2 3 2 5 4 9 9 9 9 9 6 4 4 4 4 3 5 5 5 8 10 10 11 11 10 9 12 10 9 7 7 8 10 10 9 10 11 12 12 13 13 14 14 14 13 13 15 14 14 14 14 14 14 15 15 16 16 16 16 16 16 16 16 16 16 16
1 3 5 4 2 4 4 2 2 3 5 6 1 2 4 4 4 7 4 0 1 1 2 1 2 2 2 1 1 1 1 1 4 2 6 6 10 9 9 9 8 7 5 4 4 3 3 6 6 7 6 8 10 10 11 10 8 11 11 10 8 7 6 8 11 9 9 10 12 12 13 13 13 13 13 12 13 13 14 14 13 12 13 14 14 15 15 16 16 16 16 16 16 15 15 15 15
1 1 1 1 1 2 1 1 3 5 2 5 1 2 2 4 5 6 6 3 3 2 0 2 2 1 0 3 2 1 2 1 1 5 7 9 10 10 9 9 9 9 6 4 4 3 4 7 7 6 7 9 9 10 10 10 8 8 11 11 9 7 7 7 10 10 9 10 11 12 13 12 12 12 12 11 12 13 13 13 12 12 12 13 14 14 15 15 16 15 16 15 15 14 14 15 14
5 6 0 4 1 3 2 1 3 2 5 2 5 7 5 4 6 8 5 2 1 0 1 4 2 1 2 1 2 2 3 2 1 9 10 10 13 11 8 10 10 8 6 4 3 3 3 6 7 7 7 7 7 10 10 10 8 9 11 11 9 8 6 8 7 10 11 11 11 11 12 11 11 11 11 11 11 12 12 12 12 12 11 12 13 14 14 14 14 15 15 15 15 14 14 14 14
2 2 2 1 4 1 2 3 0 3 3 2 2 4 3 4 5 3 7 1 4 4 3 1 2 0 1 2 2 1 0 0 7 9 10 11 12 10 9 10 10 12 9 5 3 3 3 6 8 7 7 6 5 9 10 8 8 11 11 10 9 8 6 7 8 8 10 11 11 10 11 11 10 10 10 10 11 11 11 11 12 11 11 11 12 13 13 14 14 15 15 15 15 15 14 13 13
1 5 2 2 2 1 3 4 4 6 2 4 5 6 5 5 3 4 2 1 0 3 2 2 1 2 2 2 3 2 2 3 10 11 12 11 10 10 9 8 9 9 9 7 4 3 3 4 8 7 6 4 4 8 11 9 9 10 9 9 9 8 7 6 7 8 10 9 9 10 10 10 11 10 10 10 10 11 11 11 11 11 11 11 12 12 13 13 13 14 14 14 14 13 13 13 12
1 1 1 2 2 5 4 2 4 7 8 2 0 0 2 6 1 2 2 4 2 0 5 6 2 6 2 1 1 1 0 5 8 9 11 10 9 9 9 7 9 9 8 7 4 3 3 4 4 6 7 6 6 8 9 9 9 9 8 8 9 8 7 7 6 7 11 11 11 11 11 11 10 10 10 9 8 9 10 10 11 11 10 11 11 12 12 12 13 14 13 13 12 12 12 12 11
2 2 4 3 2 1 1 0 3 3 5 3 2 1 4 6 5 2 3 1 2 4 3 6 2 2 2 3 2 2 3 7 4 9 10 10 8 8 7 8 8 9 8 6 6 5 5 4 4 4 5 7 7 8 8 9 8 8 7 7 6 6 6 5 6 7 10 10 11 11 11 10 10 9 9 8 7 8 10 9 10 10 10 10 11 11 11 12 13 13 13 13 12 12 11 11 10
1 5 5 3 2 3 3 2 1 1 4 1 2 1 4 4 3 4 5 3 4 5 2 3 3 3 1 1 3 2 5 6 5 9 8 9 7 7 8 7 8 8 8 8 7 6 6 4 4 4 4 4 4 6 8 9 8 8 7 5 4 5 7 7 8 10 10 10 9 9 9 9 9 9 8 8 8 8 7 7 7 9 10 10 10 10 11 11 12 12 12 13 13 12 11 10 10
0 2 4 4 1 1 2 2 3 2 5 1 1 6 3 2 4 4 6 5 7 3 1 1 3 2 5 7 5 6 7 7 7 8 9 7 7 7 10 9 8 7 9 8 7 6 7 5 5 5 4 4 4 4 4 6 9 8 8 6 6 7 7 8 9 9 9 8 8 8 9 9 9 8 8 8 8 8 8 8 8 7 9 10 10 10 10 10 10 11 11 12 12 13 12 11 10
3 5 3 2 1 3 2 2 1 2 6 3 1 1 5 0 2 4 4 4 1 0 1 4 0 2 1 7 1 5 9 9 8 9 9 9 7 7 9 10 9 9 8 9 7 6 6 6 5 5 5 5 4 3 4 4 7 9 8 7 7 7 7 8 8 9 9 9 8 8 9 7 7 6 8 6 8 8 7 6 7 6 7 9 9 9 8 8 9 10 10 11 11 11 12 11 10
1 3 0 2 3 3 3 3 5 3 3 2 3 3 6 5 1 0 1 1 3 2 1 1 3 1 3 2 2 3 10 10 9 10 9 8 8 8 7 8 8 7 7 9 8 7 6 6 6 6 6 5 5 4 3 4 5 8 7 9 8 8 8 8 8 9 9 8 7 7 7 5 4 4 4 4 6 4 7 8 8 8 7 6 8 8 8 7 8 9 10 10 9 9 8 9 9
0 1 4 1 3 4 5 6 8 2 0 1 4 5 4 3 1 1 1 3 2 0 2 3 1 2 2 3 2 5 11 13 12 13 10 10 9 10 11 9 8 8 8 9 8 8 8 7 6 7 6 7 5 5 3 3 4 5 5 5 5 6 7 7 6 5 6 4 6 5 4 3 4 4 4 5 4 4 5 8 8 7 7 8 7 8 7 6 7 9 9 9 9 9 8 5 5
1 2 2 6 4 5 6 4 6 2 1 0 1 1 4 4 6 2 3 2 2 1 3 0 2 4 2 0 5 10 12 12 13 13 13 14 14 15 11 9 9 8 10 8 9 9 8 7 7 8 7 7 7 5 4 4 4 4 4 5 4 6 5 4 4 4 4 4 4 4 3 3 4 3 3 3 4 5 5 7 7 7 7 8 8 8 8 8 8 8 8 8 7 7 5 4 4
1 2 3 5 6 4 4 4 5 2 1 2 0 1 3 2 1 1 3 2 1 7 6 2 5 7 3 3 7 10 12 13 12 14 14 9 13 14 13 12 11 7 8 8 8 7 7 6 8 8 8 8 8 5 3 4 4 4 4 4 4 4 4 4 4 4 4 4 4 4 3 3 3 3 4 6 5 4 4 6 7 8 7 7 7 5 6 6 6 7 7 6 5 3 3 4 3
1 1 3 3 1 1 3 6 6 3 1 0 1 1 1 3 3 3 3 3 5 6 8 12 15 10 9 9 10 10 12 13 12 12 12 12 12 9 10 9 9 8 7 6 6 7 10 8 7 7 7 9 8 6 5 4 4 4 4 4 4 4 5 4 5 4 4 4 4 4 3 3 3 2 2 2 3 3 3 2 2 2 2 2 4 3 2 2 3 2 2 4 3 3 4 3 3
1 4 3 2 0 1 4 3 3 1 1 1 0 3 4 1 1 4 7 9 9 12 12 11 6 8 12 13 11 10 13 14 14 13 14 14 16 12 10 8 7 7 6 8 9 8 9 9 7 6 7 10 8 7 7 6 5 4 5 5 4 4 5 4 4 4 4 4 4 4 4 4 3 3 2 2 2 2 2 2 2 1 2 2 1 1 1 1 2 2 2 2 2 2 2 2 2
4 3 3 4 3 2 1 2 1 3 1 2 1 3 2 5 2 4 9 12 4 1 3 7 5 6 6 10 13 12 13 15 15 16 15 14 14 13 11 9 9 9 8 8 7 7 9 8 8 7 8 8 11 6 5 5 6 5 5 5 5 5 4 5 5 4 4 4 4 4 5 3 3 3 2 2 2 1 2 2 2 1 1 1 1 1 1 1 1 1 1 1 1 2 2 2 2
1 7 1 2 2 5 2 4 4 2 6 3 2 1 3 1 6 1 5 12 5 4 2 3 7 9 9 13 14 18 18 18 19 17 16 17 16 15 11 11 9 7 7 8 7 7 8 11 9 8 9 9 8 7 7 7 6 6 6 6 5 5 5 5 5 5 4 5 4 4 4 5 5 3 3 2 3 2 2 2 1 1 1 1 1 1 1 0 1 1 1 1 1 1 2 2 1
4 5 2 4 2 3 2 3 4 3 6 1 1 2 6 8 4 2 7 14 4 2 3 5 7 9 8 10 13 13 15 14 13 12 9 8 10 10 9 8 9 9 10 9 8 8 9 9 9 12 10 10 7 7 8 6 7 6 5 6 6 5 5 5 5 5 5 4 4 4 4 5 4 5 4 4 2 3 2 2 2 2 1 1 1 1 1 1 1 0 1 1 1 0 1 2 2
4 4 1 3 3 3 2 3 1 2 2 2 3 7 5 4 2 4 10 8 2 2 4 5 7 9 11 12 14 14 14 16 14 13 14 10 9 12 12 10 10 11 11 9 9 9 8 9 11 12 10 9 8 8 7 7 7 8 7 7 6 5 5 5 4 5 5 5 5 5 5 5 5 5 5 3 4 4 3 2 2 2 2 1 2 2 2 2 2 1 0 0 0 0 1 2 2
4 4 4 3 3 3 1 2 2 0 2 3 4 5 4 1 4 7 1 4 5 4 5 4 7 11 12 11 12 11 14 15 17 13 8 8 9 12 13 11 11 12 9 11 10 9 8 9 11 10 9 9 7 9 8 7 7 8 6 6 6 6 6 5 5 5 5 5 5 5 5 4 5 4 5 5 4 4 3 3 4 2 2 3 3 4 2 3 2 2 2 2 2 1 2 1 1
2 3 2 4 5 3 4 1 6 1 3 6 6 5 1 0 0 8 6 0 5 8 5 7 6 7 9 10 11 10 10 11 10 9 16 14 12 12 13 12 13 11 11 11 9 8 8 10 10 10 10 9 9 8 8 8 7 7 6 6 6 6 6 5 5 5 5 5 5 6 5 5 4 4 5 4 4 4 4 4 3 3 4 3 4 3 3 2 2 2 1 1 1 1 1 1 0
1 1 4 3 3 4 3 5 2 4 3 5 5 2 4 1 6 10 6 3 4 5 6 7 8 7 7 7 8 8 11 10 8 10 14 14 10 11 15 14 14 12 9 10 9 9 10 10 10 10 10 9 10 9 8 8 7 7 7 7 6 6 6 5 6 6 6 5 5 6 6 5 5 5 5 6 5 5 5 5 4 4 5 3 3 3 3 2 2 2 1 0 0 0 1 2 2
0 3 1 4 4 5 5 3 1 2 2 5 3 9 5 6 9 12 2 6 4 4 5 6 7 6 6 7 8 8 7 6 9 13 12 10 10 11 13 11 12 12 10 8 10 11 9 8 8 8 10 11 11 9 8 8 8 7 6 6 6 6 6 6 6 5 6 5 5 6 6 6 6 5 5 5 5 5 5 5 5 5 5 3 3 3 3 3 3 2 3 0 2 1 3 2 3
2 1 1 3 1 5 1 3 5 5 2 5 3 11 5 4 7 8 2 4 8 8 7 7 7 7 6 7 7 9 9 9 12 13 12 10 10 10 12 10 12 11 9 8 12 13 11 10 8 8 10 11 11 11 10 9 8 7 7 7 7 7 6 6 6 6 5 6 5 5 6 6 6 6 6 6 6 5 5 5 5 6 3 3 4 3 3 3 3 5 2 3 2 1 1 2 1
0 2 6 0 7 3 4 1 6 10 0 1 4 9 9 7 10 4 5 5 5 7 8 8 8 8 8 7 9 9 10 9 10 9 9 10 11 11 12 13 11 11 12 11 11 10 12 10 10 10 11 12 12 11 10 9 9 8 7 7 7 7 6 7 7 7 6 6 6 6 6 6 6 6 6 6 5 5 6 5 6 4 4 4 3 3 3 4 4 3 3 3 3 4 2 4 0
1 4 1 3 1 4 7 0 2 5 2 1 8 8 1 4 8 0 2 5 7 9 7 7 9 10 9 9 9 9 7 8 9 10 10 11 11 10 10 11 11 12 11 11 12 10 11 11 11 12 13 13 12 11 10 9 8 9 8 8 8 8 8 7 7 7 7 7 6 6 7 7 7 7 7 7 6 6 6 6 6 5 4 5 4 4 4 4 4 4 3 3 3 4 2 4 4
2 1 6 2 5 2 6 3 0 2 1 3 3 6 5 5 3 1 1 5 3 5 8 9 9 9 9 7 8 9 10 10 13 13 13 12 11 11 10 10 11 10 10 11 11 12 12 11 11 12 11 12 11 11 11 9 8 8 8 7 8 8 9 8 7 7 8 8 7 7 7 7 7 7 7 7 7 7 6 6 5 5 5 5 5 5 5 3 3 3 4 2 3 3 4 4 5
10 8 6 7 4 7 5 5 2 1 1 4 2 7 7 9 11 6 4 5 7 9 11 5 5 5 6 7 9 10 11 12 15 12 13 13 12 10 10 10 10 10 10 12 11 10 9 10 10 11 11 10 11 10 10 9 8 8 8 8 8 9 8 8 8 8 8 7 8 8 8 8 8 8 8 7 7 6 6 6 5 5 5 5 5 5 3 3 3 2 4 3 2 4 4 3 3
9 8 8 2 6 4 5 2 3 2 3 5 8 9 5 10 11 15 5 6 7 10 6 5 6 6 7 8 9 9 11 15 13 8 9 10 11 10 10 9 9 9 10 10 11 10 11 11 10 10 10 10 9 9 9 9 8 8 8 7 8 9 8 8 8 8 7 7 8 9 9 8 8 8 8 8 8 7 6 6 6 5 5 5 5 5 5 5 6 5 6 5 4 3 3 3 1
4 4 4 8 7 2 0 1 1 3 2 7 8 9 8 8 11 13 14 4 4 5 6 8 8 8 9 10 11 12 12 17 8 7 9 9 9 9 9 9 10 9 10 11 11 13 13 13 11 12 10 9 9 10 10 10 9 8 9 10 12 10 8 8 8 8 8 8 7 8 8 8 8 8 8 7 7 7 7 5 5 5 5 6 6 7 7 7 6 5 3 3 5 3 2 3 2
6 5 5 6 4 7 1 1 2 2 1 3 3 4 9 10 10 11 12 3 9 9 9 10 11 10 10 10 11 12 16 5 3 8 7 6 9 10 10 10 9 11 12 11 14 14 12 11 12 11 9 10 11 12 10 10 10 10 9 10 8 8 8 8 9 7 8 7 8 8 8 8 8 8 8 8 8 7 7 6 5 6 6 6 7 6 4 4 5 5 4 2 2 4 3 3 4
4 5 4 2 5 2 3 3 3 1 2 8 8 11 11 10 11 14 14 11 8 9 11 11 11 10 10 9 11 12 9 9 7 11 6 8 9 9 10 11 12 14 12 14 14 12 13 12 12 11 10 11 11 11 10 11 10 10 10 8 8 5 5 7 7 6 6 7 8 9 9 9 9 8 8 8 8 8 8 7 7 6 6 6 6 5 5 5 6 6 6 6 3 1 2 1 3
5 4 6 9 3 6 4 2 3 2 3 2 3 6 8 8 8 13 15 9 8 7 8 10 8 10 11 13 15 13 12 9 11 15 13 9 10 10 11 12 13 10 12 13 12 13 11 11 11 12 12 11 10 11 11 10 10 9 8 7 6 8 6 5 6 6 8 9 10 10 10 10 9 9 8 8 8 7 8 8 7 7 6 6 7 7 6 6 5 4 6 6 4 3 2 4 4
3 7 5 4 4 3 2 1 3 5 2 1 5 9 10 9 9 8 10 7 8 12 5 8 8 8 10 7 5 8 14 14 15 15 8 9 10 12 14 15 12 13 15 14 13 13 11 15 15 14 13 12 11 11 13 10 7 6 5 4 3 4 2 6 7 8 9 10 10 10 11 8 9 9 9 9 8 8 8 7 7 7 6 7 6 7 6 8 8 7 7 5 7 7 5 3 1
5 3 5 6 7 5 1 2 4 4 5 2 4 4 15 6 10 14 10 3 6 6 8 13 13 11 9 9 12 10 10 10 13 15 13 12 13 12 10 9 11 13 14 15 13 13 14 14 14 14 12 11 12 12 12 10 10 10 9 9 8 9 10 9 11 14 11 10 11 6 6 9 9 8 8 9 9 8 8 8 7 7 7 6 6 7 7 5 4 6 8 8 7 6 6 3 3
7 8 10 7 6 6 3 1 2 3 5 1 0 11 11 2 8 8 7 10 14 9 9 12 11 11 8 11 11 11 12 12 11 11 8 7 11 10 10 11 14 15 16 11 9 12 14 14 13 13 12 12 12 11 11 11 11 11 14 14 12 12 13 11 9 8 9 7 4 6 6 6 8 9 8 8 8 8 8 7 8 8 7 6 6 6 6 6 7 8 6 6 8 6 4 4 5
7 6 11 7 6 5 4 2 3 3 1 7 3 4 9 11 13 3 3 8 12 11 15 11 10 8 10 11 13 12 13 13 12 14 14 12 10 13 16 17 14 17 14 10 12 13 15 15 13 14 13 12 11 11 12 14 14 13 13 14 13 13 13 13 10 9 5 4 6 7 5 6 8 9 8 8 8 8 8 7 7 7 7 7 7 7 7 7 5 4 6 6 4 5 7 7 5
3 7 11 8 9 6 4 3 2 2 3 7 3 1 3 11 4 5 3 9 12 14 14 12 10 11 12 13 14 14 14 14 14 13 13 13 14 14 15 13 14 11 8 13 14 13 13 12 13 12 13 13 12 12 13 14 14 13 13 12 13 12 11 10 6 6 6 6 8 7 7 7 7 8 9 8 8 8 8 8 7 7 7 8 8 7 6 6 7 7 6 5 6 6 6 6 4
2 11 8 4 4 2 3 2 2 2 1 14 6 2 5 16 3 8 5 8 18 12 8 12 11 12 14 14 14 15 13 11 11 13 13 10 10 10 9 5 4 11 12 10 9 8 9 10 12 13 15 13 12 12 13 13 13 11 12 14 15 13 10 7 6 7 7 7 9 8 8 8 7 7 8 9 9 9 8 8 8 9 9 8 7 8 7 6 6 6 7 7 6 6 4 5 6
6 6 8 5 3 2 3 1 2 0 7 8 6 3 3 10 7 12 9 15 9 3 7 6 5 7 10 11 10 11 11 12 10 8 9 8 6 6 6 11 13 7 7 9 9 10 9 10 12 14 15 11 11 13 13 14 13 13 14 15 16 15 12 10 9 8 7 7 9 9 9 8 7 8 7 8 9 9 8 8 8 8 7 7 7 7 7 7 7 7 6 5 5 6 5 5 5
12 3 6 8 2 2 1 1 0 3 10 1 7 7 6 10 5 6 9 1 6 10 11 12 12 11 11 10 10 11 9 7 6 6 9 10 8 7 6 11 11 10 7 10 11 10 10 11 11 14 13 13 12 12 13 14 13 15 15 15 15 15 13 11 13 13 11 11 10 9 7 6 7 7 7 7 8 8 8 7 8 8 7 6 7 7 6 7 6 5 5 5 4 5 5 5 4
7 7 8 11 4 3 3 1 5 10 8 2 1 7 1 18 20 3 3 8 8 8 8 10 11 10 8 7 7 7 5 5 6 8 8 7 9 10 10 12 7 8 12 13 13 12 12 12 14 15 16 14 13 13 14 15 14 15 16 15 14 12 13 13 13 12 11 11 10 9 8 9 7 7 8 8 8 9 8 8 8 7 7 7 7 7 7 7 7 7 6 5 5 6 6 6 5
8 11 10 9 7 6 7 8 1 4 3 3 3 1 8 12 9 12 11 15 8 8 10 10 10 11 8 6 5 5 5 5 7 7 7 9 9 10 10 10 10 9 10 12 12 12 11 12 14 15 18 14 13 13 15 15 16 16 15 14 14 12 14 13 12 12 11 10 9 10 10 10 9 9 8 9 8 8 8 9 8 8 8 8 8 8 7 6 6 6 7 7 7 6 5 6 6
13 6 10 6 4 5 9 6 12 7 5 2 3 3 8 4 5 1 15 16 19 8 6 7 8 10 9 4 5 6 8 8 8 8 9 10 11 10 9 9 9 10 10 10 9 11 10 11 12 15 14 12 13 15 13 16 15 14 13 13 13 12 12 11 11 10 10 10 9 10 10 8 9 9 9 8 6 8 8 7 9 9 8 7 7 7 7 6 6 5 6 5 5 5 6 6 5
4 3 2 3 9 4 6 2 4 2 2 0 3 8 3 5 3 4 6 10 10 10 8 5 10 8 5 6 8 9 9 9 7 8 9 10 8 6 6 7 8 7 7 7 8 9 10 11 12 14 15 14 14 14 14 15 14 11 12 13 13 12 10 9 8 7 8 9 10 10 10 10 9 8 7 7 8 9 9 9 8 8 8 8 7 7 8 7 6 6 6 5 5 4 6 6 6
9 6 14 9 0 1 4 2 1 4 1 10 2 8 9 7 12 15 8 2 8 7 10 8 10 7 5 9 11 9 10 9 8 9 10 8 4 6 7 6 5 6 6 9 9 9 11 10 10 12 12 9 10 12 12 11 11 11 12 12 11 10 10 11 12 11 10 8 9 9 9 9 9 8 8 9 8 9 9 9 8 8 8 7 8 8 7 7 7 6 7 7 6 5 5 6 6
7 11 9 3 1 2 3 3 1 1 5 6 3 14 7 2 14 1 12 6 8 6 8 8 9 5 5 10 10 11 10 10 8 6 6 5 4 5 5 5 5 6 7 6 8 7 7 8 9 10 9 11 10 9 11 11 11 12 11 11 10 11 11 11 10 9 8 8 8 7 7 7 10 10 9 8 9 9 9 9 9 8 7 7 8 8 7 7 7 6 7 7 7 7 6 4 6
9 8 4 10 5 8 2 2 3 4 3 4 4 3 7 10 14 1 1 9 13 14 10 6 8 8 9 10 11 10 8 6 6 7 7 6 6 5 5 6 5 5 6 6 5 5 5 5 5 6 10 10 9 8 7 7 8 8 8 9 10 10 9 8 7 6 7 9 10 9 9 10 7 7 8 9 9 9 9 8 8 8 7 7 6 7 7 7 7 6 5 6 5 7 6 5 4
1 3 10 3 2 1 6 8 2 5 6 0 8 2 11 8 6 6 8 5 8 11 9 7 7 8 9 9 9 8 6 6 5 6 6 5 4 4 5 5 5 6 5 4 4 3 5 6 5 6 5 4 4 6 7 8 7 7 7 6 7 7 7 8 8 9 9 10 10 10 9 8 10 8 9 9 10 10 9 9 7 8 8 8 7 6 7 7 6 6 6 5 6 7 6 6 4
7 6 10 6 2 2 4 1 5 5 3 4 3 6 9 3 9 10 12 12 11 10 11 7 7 9 9 7 6 5 5 5 5 5 5 5 4 4 4 4 3 1 2 3 4 6 5 4 6 6 8 7 7 7 7 7 6 8 7 9 8 8 9 9 9 10 10 10 9 9 9 9 7 9 9 9 9 10 9 9 9 8 9 8 8 7 6 7 6 6 5 6 6 6 7 5 6
9 8 8 10 8 5 7 8 3 2 1 4 2 11 11 5 2 10 10 12 12 15 13 12 7 7 6 7 6 5 7 5 4 4 4 5 4 3 2 0 1 1 2 4 4 3 4 6 6 6 5 6 7 7 7 6 6 6 8 7 8 7 8 8 9 9 10 9 8 8 8 6 8 8 9 9 10 9 9 9 9 9 8 7 7 8 7 7 7 7 6 6 7 6 6 7 6
Wind_Direction
334 344 341 73 50 94 51 360 132 320 53 298 342 30 169 169 179 77 144 64 142 237 193 85 132 142 166 204 183 186 220 137 200 133 213 232 246 125 127 126 129 130 135 146 149 148 158 154 154 157 129 123 124 124 119 121 119 110 108 98 89 98 98 97 96 93 96 100 100 97 94 97 94 91 87 84 83 82 84 87 86 89 88 86 85 84 83 85 86 85 82 79 76 77 78 82 83
333 338 37 1 359 53 305 115 99 352 37 42 237 79 245 275 95 204 168 185 200 190 177 114 93 96 56 53 107 126 81 305 174 152 63 196 106 95 142 136 139 139 143 143 138 141 150 161 155 153 140 124 131 130 129 139 124 119 117 105 114 118 107 103 95 101 104 107 103 99 96 85 89 87 85 83 85 88 86 82 82 86 87 83 79 82 83 83 84 83 83 81 81 80 80 82 84
347 7 7 24 26 73 90 35 318 72 59 308 278 212 337 152 185 191 200 202 222 149 130 106 101 47 4 343 78 143 225 88 137 237 120 133 137 173 150 135 132 134 137 136 133 130 138 145 146 149 146 134 135 137 136 141 124 125 112 120 130 110 102 106 103 97 99 100 103 103 96 93 92 93 88 85 84 87 88 91 94 96 93 83 82 83 84 85 86 86 82 81 83 84 85 84 83
103 39 127 68 276 37 56 22 93 122 275 212 303 282 208 185 207 196 231 226 148 115 321 107 124 252 106 279 217 90 81 343 181 155 135 166 175 143 143 133 125 122 120 124 131 129 133 148 152 161 148 143 139 139 141 130 124 114 121 120 105 116 112 99 94 95 97 109 108 108 104 99 95 91 88 89 93 91 88 92 95 91 91 85 85 85 88 89 87 82 82 84 82 83 84 84 84
57 342 85 101 101 8 100 124 138 104 289 203 15 289 255 218 194 200 151 169 169 115 31 197 74 342 162 166 126 132 235 69 134 228 127 108 113 142 136 129 127 130 131 134 129 131 141 145 156 173 146 140 142 141 142 132 123 120 113 101 104 94 105 114 112 107 97 105 105 102 96 91 90 88 88 88 86 85 87 91 93 93 91 88 87 85 76 79 85 86 84 82 84 83 85 84 83
58 45 5 78 11 169 59 71 15 212 214 153 347 249 232 213 168 187 155 189 226 190 196 91 158 195 165 286 176 107 196 144 187 222 157 160 140 144 137 129 130 132 135 132 132 133 155 148 152 138 131 136 140 143 143 134 126 125 120 112 112 108 105 106 104 105 104 104 105 101 96 97 91 89 88 87 89 88 89 91 92 95 95 89 86 84 86 81 80 82 82 81 81 82 83 84 83
322 42 358 29 30 52 168 133 219 203 276 163 252 254 234 211 208 136 160 151 270 44 137 186 106 130 67 297 20 244 203 186 128 205 158 147 136 144 140 134 133 130 141 138 135 139 162 147 139 127 132 139 138 141 144 140 129 130 121 118 119 118 105 109 101 103 107 104 96 97 99 94 90 89 89 92 91 91 89 87 89 94 93 84 84 80 75 78 81 80 78 77 79 81 82 83 82
56 120 322 113 265 39 51 173 233 153 266 163 218 271 263 222 156 154 177 136 220 174 229 242 157 103 232 31 166 253 349 213 230 137 120 144 141 144 143 136 140 145 140 144 143 148 168 142 132 130 138 142 144 139 144 144 132 134 122 124 123 120 121 120 111 105 106 102 99 103 94 91 91 91 94 93 93 94 94 90 90 91 98 89 83 81 79 77 75 75 79 80 79 80 82 82 83
359 83 257 72 76 43 52 234 260 240 284 288 269 221 269 204 178 147 168 227 24 192 164 179 219 183 222 42 184 280 301 299 111 127 137 144 151 150 145 147 150 152 146 151 152 153 150 137 133 138 137 142 147 139 146 143 134 130 125 127 128 131 129 132 121 117 105 102 104 99 95 93 93 94 95 94 93 93 93 92 91 95 96 94 88 84 82 81 82 83 82 82 82 81 81 82 81
40 55 280 133 130 235 16 297 132 237 218 232 229 263 221 152 179 159 162 161 214 132 209 59 148 91 112 149 310 335 330 75 134 123 142 151 152 150 151 154 153 153 153 155 162 150 146 141 136 133 132 149 148 134 135 133 125 121 124 130 129 132 123 122 124 110 111 114 111 105 101 98 98 98 99 99 94 92 95 96 93 95 99 99 94 90 87 86 87 87 86 86 86 84 84 83 84
258 19 129 106 40 117 197 262 269 309 258 307 289 235 220 130 156 165 164 189 96 148 190 183 7 135 97 256 207 255 298 193 144 154 151 153 151 153 150 151 151 151 157 157 159 150 148 141 136 131 131 125 118 132 131 132 130 128 130 129 128 135 139 129 121 123 89 101 114 109 102 99 94 93 94 91 92 93 93 93 92 92 97 101 99 96 93 89 87 87 88 89 88 88 86 87 88
310 31 18 99 180 162 228 184 268 280 300 325 268 10 187 134 130 158 212 156 198 212 172 155 230 144 72 336 301 323 329 197 168 150 151 151 156 153 150 145 149 149 158 157 149 156 146 143 135 136 131 120 99 104 124 133 132 121 120 130 136 144 149 144 129 118 90 88 92 98 100 98 97 96 96 98 93 97 100 99 99 97 98 97 97 99 95 90 88 86 86 89 87 87 87 86 87
112 102 77 110 231 149 163 87 252 310 319 291 189 189 134 124 193 198 170 139 136 118 274 217 150 78 166 180 255 324 184 211 179 152 152 155 156 149 147 145 150 150 155 157 159 159 151 144 140 134 135 123 114 110 111 119 120 123 128 135 140 138 152 137 136 128 102 107 105 104 101 99 100 100 95 79 80 98 104 102 101 102 101 102 100 100 100 92 88 85 83 83 84 83 85 86 86
124 183 134 221 56 121 143 210 342 337 290 244 269 161 171 139 228 172 133 161 204 166 250 183 154 129 128 13 300 222 221 190 180 155 151 151 146 147 148 147 147 152 160 162 172 163 156 150 143 133 129 122 123 118 117 120 124 124 124 120 109 80 106 93 81 86 92 95 94 92 94 92 93 86 77 66 61 62 67 70 93 104 107 104 104 104 101 94 86 84 82 81 82 81 81 83 82
224 160 82 103 89 112 251 106 220 157 260 210 197 141 184 255 122 137 162 167 243 212 330 131 172 114 241 155 273 210 194 177 160 154 147 141 144 148 150 153 153 156 165 171 171 167 168 157 148 137 134 128 130 127 128 128 127 126 128 130 98 107 100 104 104 100 99 98 95 95 94 91 85 79 76 75 72 71 69 70 79 99 111 110 108 107 96 86 76 73 77 78 77 77 75 73 75
142 87 81 139 198 169 246 174 87 99 260 182 339 224 144 164 167 124 246 156 230 332 131 198 98 218 241 171 228 201 161 148 153 148 143 144 147 149 155 158 162 165 171 174 175 174 176 162 159 146 142 141 137 135 137 134 134 133 134 124 116 115 113 111 111 110 107 101 99 100 97 91 83 77 78 70 73 69 66 68 66 79 105 110 106 101 97 88 74 73 74 72 69 70 68 61 58
76 82 153 50 221 171 239 169 152 215 249 268 286 171 161 207 217 238 39 99 124 188 219 233 214 37 183 212 295 188 136 134 140 146 149 150 150 160 162 167 166 168 174 178 182 186 181 171 165 160 150 146 142 139 141 142 144 137 132 127 127 125 123 119 111 110 109 108 106 102 97 93 90 85 77 78 73 73 75 72 71 63 64 91 105 98 86 81 76 75 73 69 64 61 60 57 50
228 130 113 198 202 163 205 181 186 202 55 250 196 226 155 199 183 197 98 31 69 14 230 302 301 265 231 263 303 138 132 143 155 156 165 160 166 171 176 174 166 175 177 184 181 190 188 179 174 167 154 156 149 141 148 146 146 137 136 135 134 130 125 122 119 121 117 116 113 105 105 105 101 99 92 91 84 84 79 80 75 70 66 70 73 80 73 79 84 66 64 63 63 62 61 63 44
97 110 108 227 182 238 162 206 203 134 270 257 225 144 200 219 130 229 148 230 138 139 263 350 299 287 351 78 130 136 144 153 164 170 170 173 177 180 174 164 172 166 183 180 183 192 191 183 181 172 167 154 158 155 153 154 149 139 142 141 138 136 137 130 132 124 128 128 120 116 111 110 110 101 103 106 100 87 85 89 86 80 77 75 73 63 61 56 56 57 59 60 54 51 55 61 61
222 123 241 254 212 242 226 174 211 215 115 343 136 222 158 245 158 101 202 165 101 195 206 273 243 230 219 145 146 150 155 164 173 176 180 169 177 183 178 175 179 172 175 182 181 185 190 189 186 183 173 164 163 159 143 152 158 151 150 147 143 143 140 141 138 138 138 137 134 127 122 114 106 106 97 96 96 90 79 69 78 78 70 63 69 64 43 39 42 51 55 52 42 38 46 41 61
296 112 179 236 207 263 249 182 223 226 214 227 199 16 210 252 202 156 176 123 242 258 233 191 206 202 173 166 160 160 163 168 179 184 186 187 187 190 189 184 180 172 172 164 173 187 192 195 185 187 177 172 170 170 159 165 156 159 148 156 154 152 152 146 147 147 148 143 141 134 130 120 104 94 92 81 95 98 80 77 63 67 70 68 43 70 34 16 26 9 18 33 30 27 36 18 21
66 218 208 173 148 230 262 202 141 190 297 121 179 139 231 112 89 189 154 190 217 212 231 221 218 170 160 165 168 166 169 175 183 187 191 190 189 185 184 182 183 176 161 182 192 186 192 191 187 189 176 179 175 186 184 168 164 170 168 165 161 163 159 161 158 158 158 154 148 139 125 117 112 110 109 112 97 107 111 111 102 85 80 93 61 83 52 38 29 24 30 43 14 32 51 33 24
209 276 265 212 201 222 315 15 168 118 105 154 132 229 75 178 219 190 185 206 217 274 256 191 185 173 167 154 154 169 175 183 188 193 190 192 195 196 190 184 185 183 179 192 183 188 190 189 188 189 181 183 190 181 180 164 185 186 184 165 165 165 169 165 177 173 172 162 154 152 142 135 127 133 131 134 158 131 147 148 139 110 127 128 101 115 72 38 54 52 53 60 15 19 5 29 46
177 227 296 294 160 228 10 326 129 172 144 230 212 46 215 202 232 118 198 236 212 345 316 194 148 137 150 162 177 173 182 185 193 194 192 194 193 193 189 188 190 185 186 191 190 184 188 192 187 188 191 194 194 177 188 187 191 188 191 171 187 177 171 181 182 181 165 171 167 167 156 157 155 151 157 162 193 151 186 169 127 139 142 146 112 133 125 43 54 73 110 82 57 20 352 0 30
195 240 307 271 240 229 274 275 275 222 235 268 210 181 238 188 197 103 237 239 221 4 77 111 130 139 162 174 179 185 186 192 194 196 196 201 198 193 194 194 194 191 196 192 190 191 192 188 186 194 193 193 194 179 190 187 190 193 186 186 193 175 188 189 180 162 175 176 175 168 164 159 162 164 174 186 154 196 184 178 177 191 181 167 151 200 157 159 144 109 110 116 98 28 4 333 348
182 235 271 273 273 289 275 339 329 221 269 156 152 233 258 248 156 261 244 257 171 122 82 122 138 148 172 186 187 185 190 193 193 192 198 190 190 191 197 197 197 204 202 189 187 196 190 185 191 196 191 193 191 180 190 189 189 195 195 195 196 177 200 188 164 179 183 172 184 185 183 171 174 175 180 171 172 204 199 184 191 205 191 182 163 218 204 164 189 157 164 143 128 34 321 308 359
143 226 229 239 260 327 297 205 260 223 245 177 194 256 266 316 154 270 272 256 141 113 132 150 157 176 186 188 192 197 192 193 194 192 180 194 196 197 198 198 202 208 197 198 194 192 188 188 196 196 192 190 190 190 188 192 188 197 189 190 193 196 194 176 181 183 181 187 187 182 185 183 175 177 176 180 191 196 198 197 216 202 213 209 186 219 185 195 183 188 193 208 212 211 242 222 183
205 244 235 256 263 238 253 291 273 99 275 183 196 250 128 274 95 238 247 60 174 153 161 172 185 193 196 196 195 200 202 205 196 178 195 192 197 194 197 198 203 203 203 205 197 187 187 194 194 194 193 190 194 192 186 191 192 196 189 187 195 195 189 189 188 182 188 192 184 182 185 188 181 186 183 183 188 189 200 207 214 198 228 214 199 206 207 201 198 197 184 193 196 183 276 305 239
261 285 223 304 333 290 213 208 238 167 252 157 183 306 286 131 218 238 239 145 173 171 175 185 196 201 202 205 204 203 208 201 191 200 209 205 196 197 201 197 196 201 207 206 199 191 197 191 194 193 192 192 197 195 190 192 191 190 192 194 193 192 193 194 194 191 190 190 183 184 188 188 187 188 193 190 190 189 193 199 212 220 229 214 204 209 203 191 195 217 258 115 66 1 333 327 356
61 40 96 324 343 286 235 136 125 176 238 155 160 264 234 231 228 239 158 146 113 138 199 203 206 206 210 206 208 214 215 202 205 212 210 202 198 203 206 200 199 200 199 198 196 205 198 195 192 189 192 196 198 199 194 194 194 192 193 194 193 191 198 198 203 197 190 188 186 189 189 188 189 194 185 194 185 189 191 197 208 226 223 208 199 190 209 200 215 218 244 332 293 321 293 313 352
146 219 58 224 182 251 294 190 160 207 165 184 126 251 263 284 259 251 178 180 159 193 214 210 208 211 208 210 214 216 220 211 212 212 211 205 205 205 207 203 199 198 192 193 199 202 197 196 188 195 190 197 195 201 199 198 193 193 193 195 193 192 196 201 203 197 193 191 185 194 190 187 191 190 191 185 189 189 191 205 210 227 198 188 193 205 206 218 210 228 202 219 261 289 289 293 280
72 115 242 339 198 284 310 116 175 197 261 205 122 265 252 254 262 246 183 173 180 210 214 214 214 212 209 209 215 217 222 216 226 226 218 214 209 209 203 207 197 196 198 196 199 196 199 197 190 195 190 197 198 201 201 197 195 195 196 196 194 190 195 202 201 198 196 192 188 192 193 193 192 193 190 188 186 191 196 202 217 213 187 176 199 182 179 208 218 233 224 192 240 274 308 294 60
336 200 300 213 167 257 344 328 295 304 99 304 201 242 342 295 255 170 227 186 190 211 224 218 219 218 211 212 214 220 225 230 230 227 219 214 219 215 210 208 202 201 198 195 200 197 200 199 195 198 195 199 200 199 201 200 196 196 196 197 200 191 195 203 204 197 196 194 191 194 193 196 198 196 195 191 193 194 199 206 217 198 175 180 178 179 194 211 194 218 228 206 195 245 255 266 294
225 137 215 191 205 123 232 316 209 235 277 233 245 254 226 266 300 251 122 187 194 248 237 226 223 220 217 216 218 220 222 223 225 220 218 214 217 214 212 211 207 200 201 202 201 198 200 198 200 202 201 199 200 199 200 202 199 195 197 200 200 203 203 201 204 197 202 196 188 197 195 194 198 200 197 192 198 201 199 204 207 176 172 176 179 174 210 191 207 196 233 211 196 204 240 245 263
193 181 190 236 210 202 213 158 248 67 329 268 271 249 261 278 297 252 204 176 185 222 236 249 257 251 239 224 224 228 226 225 230 220 215 215 215 213 212 213 209 205 204 203 202 200 200 204 204 205 202 196 199 199 201 203 199 199 200 200 203 209 208 206 200 205 207 198 194 194 195 198 197 198 196 190 197 200 199 203 193 185 172 179 179 196 209 202 209 212 219 239 210 213 223 230 243
206 177 200 169 208 203 219 277 277 136 272 251 243 245 241 252 254 270 223 171 178 228 244 254 240 230 235 232 234 232 229 234 235 223 220 217 214 207 209 212 216 213 209 203 204 201 205 205 204 205 205 198 195 197 195 200 199 202 198 199 209 207 207 203 205 209 201 209 205 195 198 200 197 199 195 191 195 198 199 197 194 174 177 170 180 190 214 202 208 205 222 215 220 229 234 242 240
137 158 173 214 214 232 139 212 304 31 315 249 247 267 254 248 243 247 259 149 214 244 246 235 234 224 223 228 230 231 233 234 231 224 223 215 210 208 209 209 217 216 215 207 204 208 207 205 196 207 201 197 194 198 198 195 195 196 206 202 211 206 207 204 207 207 205 208 203 206 200 201 199 197 195 189 196 193 200 197 181 176 174 177 183 202 206 208 203 201 204 192 213 225 262 210 197
155 170 183 221 186 227 204 258 325 344 164 287 274 281 266 254 263 259 268 165 231 221 230 238 237 229 227 227 236 233 235 263 273 248 227 203 205 204 202 210 210 213 218 209 212 211 208 208 208 206 197 201 203 201 198 201 204 206 202 212 212 204 203 202 209 206 207 202 201 205 207 204 202 202 195 191 195 193 195 194 188 187 179 188 198 207 196 181 175 191 184 190 198 197 230 189 201
168 170 178 200 230 85 277 284 311 293 178 259 252 261 264 254 246 258 253 241 239 221 211 225 222 233 233 229 236 244 249 240 237 249 231 215 211 206 203 210 212 215 214 212 214 207 207 208 213 207 206 202 206 201 198 206 206 208 205 210 204 206 211 207 210 202 196 201 203 206 205 205 203 206 197 193 195 195 198 193 199 193 189 183 189 204 196 195 189 193 185 195 203 253 249 244 189
155 118 147 216 125 163 270 224 315 276 193 275 328 301 274 268 253 253 260 237 250 245 223 232 210 219 227 226 221 228 238 241 236 238 229 212 207 208 207 211 213 208 214 219 214 210 207 211 211 210 213 207 202 201 204 206 206 207 211 205 198 198 200 195 201 200 198 200 209 205 209 205 199 203 201 195 198 198 196 198 196 192 195 187 190 198 197 207 189 193 189 205 175 195 218 245 195
203 182 182 139 140 156 168 226 292 287 305 177 281 291 276 236 253 263 259 244 232 251 235 253 247 234 234 248 269 229 231 225 229 240 228 211 209 211 207 210 202 207 213 214 208 204 205 207 208 208 210 206 202 200 201 199 191 193 194 190 186 200 179 189 203 211 204 204 209 205 208 197 200 202 199 201 197 200 197 199 195 197 193 192 192 202 201 208 202 195 186 182 183 201 228 227 221
201 243 177 149 137 128 77 11 24 14 299 194 156 316 259 212 220 229 243 245 240 245 231 241 239 230 233 237 236 237 240 235 231 235 224 212 211 217 215 210 206 215 216 217 207 206 205 208 206 206 207 206 206 203 197 189 194 193 188 193 194 203 208 197 200 208 208 207 213 200 187 193 197 201 201 202 202 200 201 198 196 192 196 192 193 205 211 206 200 189 195 192 200 204 203 177 204
172 216 137 143 136 141 115 266 79 252 230 271 105 223 267 42 241 222 227 246 246 251 231 238 239 240 230 230 234 234 228 237 237 247 239 211 218 215 212 207 210 213 220 209 205 212 211 211 206 203 205 208 205 201 190 190 199 201 201 204 205 208 215 219 218 219 217 216 196 195 198 187 195 199 203 203 204 202 202 196 193 195 195 194 194 199 208 208 208 208 187 181 203 189 167 203 201
224 134 137 134 128 147 184 143 155 262 291 283 189 211 272 278 249 214 240 253 258 260 253 238 239 236 237 231 232 231 228 229 229 231 230 222 218 206 213 211 207 213 208 189 208 210 208 209 201 201 204 207 203 195 192 195 201 203 205 208 209 214 214 221 211 216 205 190 193 202 190 194 194 199 203 203 205 202 202 198 195 196 195 198 187 199 207 211 207 195 184 196 178 177 180 195 213
215 171 133 166 163 177 158 142 165 219 359 274 229 32 308 250 282 176 178 256 252 245 247 250 240 237 239 237 235 232 230 227 223 229 230 218 216 214 217 214 215 212 188 201 208 207 208 206 205 203 206 206 204 195 196 200 204 202 204 207 214 219 218 222 209 194 191 182 198 195 196 198 195 198 198 203 203 205 199 199 194 201 202 200 190 199 211 201 196 189 180 176 185 195 189 196 178
203 159 151 137 110 81 124 128 140 258 147 254 196 162 233 274 217 205 191 235 249 238 236 247 238 233 233 235 236 235 236 236 232 233 237 232 223 225 226 241 220 211 207 207 209 203 207 205 204 203 209 206 200 197 198 202 202 200 205 209 214 216 210 210 189 200 195 185 204 202 200 201 199 198 200 200 201 204 201 200 196 206 209 200 188 199 193 189 191 191 190 188 185 190 185 181 196
127 114 100 98 55 77 31 84 164 32 254 270 114 199 144 295 215 208 178 222 240 275 263 259 261 247 247 240 242 245 239 238 237 238 247 247 233 219 200 212 222 214 203 199 203 200 199 201 204 207 212 203 197 200 195 202 200 202 209 210 212 214 206 200 201 205 191 191 206 206 202 203 195 199 195 200 200 197 200 199 197 201 198 193 189 187 190 190 192 186 186 185 179 184 180 186 201
138 145 129 116 38 58 57 286 43 191 251 69 173 156 142 231 283 207 220 241 184 197 220 238 249 241 235 232 228 237 243 251 246 236 246 242 244 233 207 222 218 209 191 199 204 197 195 199 199 208 210 204 201 199 197 203 201 207 212 211 212 212 203 201 206 208 198 202 204 206 198 190 197 195 190 197 202 194 192 195 197 194 193 188 190 187 186 185 179 170 171 175 182 187 169 171 173
147 135 142 143 166 84 254 77 228 214 234 195 81 148 106 234 238 318 304 272 271 239 223 222 231 240 236 248 242 240 247 254 247 241 244 245 234 228 219 228 216 199 201 201 200 196 196 197 197 202 210 203 201 196 200 203 203 208 210 211 213 208 206 206 206 208 199 202 199 200 189 199 192 193 195 196 200 193 188 193 193 194 194 192 185 184 185 181 171 170 164 172 176 175 175 164 168
168 170 157 145 150 179 211 203 339 316 270 252 137 125 256 268 299 206 238 271 252 231 226 234 242 249 250 235 259 270 258 245 245 240 240 240 232 230 223 222 212 210 211 206 201 195 196 199 200 203 213 200 199 198 202 203 208 210 208 209 210 205 210 207 207 206 201 199 193 198 197 199 198 201 195 201 195 186 191 195 189 195 193 185 182 179 173 171 171 173 161 174 176 184 164 164 174
192 170 181 186 155 171 199 176 192 207 201 182 270 107 231 146 253 237 205 213 239 247 256 248 242 249 258 272 281 279 273 256 238 239 234 232 233 227 224 218 217 214 212 208 202 202 196 201 201 208 213 204 199 203 202 207 211 211 209 210 211 209 210 207 209 205 198 194 193 195 200 197 200 201 201 201 181 188 194 189 189 190 185 181 178 169 157 161 167 154 159 174 169 161 166 157 150
217 173 68 234 234 127 151 198 160 212 177 296 205 209 199 188 250 263 230 283 289 287 274 242 268 261 251 267 251 246 248 252 237 237 249 245 238 231 226 223 220 218 215 211 209 203 200 205 204 208 210 205 201 202 207 209 212 209 210 210 213 210 209 208 209 200 202 194 191 193 196 196 200 199 196 187 193 188 191 196 190 189 179 175 169 167 157 160 165 167 153 160 164 166 153 152 150
188 141 211 207 165 118 94 45 93 89 50 247 126 298 272 312 289 268 275 206 280 286 283 284 264 245 235 251 251 243 241 244 242 233 237 245 233 232 230 224 222 217 214 211 210 203 203 200 203 210 214 210 206 207 211 209 212 209 212 212 209 208 205 206 207 203 197 188 187 193 191 196 195 192 192 190 183 189 194 194 191 187 182 178 165 170 166 155 165 171 163 163 164 171 157 155 150
118 201 206 98 116 118 140 209 11 139 197 260 126 233 273 83 277 247 235 244 258 253 255 250 259 279 226 243 244 240 236 234 241 245 246 242 224 228 226 226 216 211 212 216 216 209 208 206 205 208 208 209 212 204 207 207 207 211 209 208 208 206 207 209 206 198 187 184 192 190 188 186 196 193 185 183 183 189 189 186 187 183 174 171 172 164 157 149 162 178 170 166 168 159 157 152 156
181 198 150 159 216 233 260 101 242 181 233 266 288 258 265 207 235 357 300 231 250 262 254 245 265 252 243 249 250 248 245 258 254 249 250 241 225 223 219 217 220 220 214 213 211 198 202 212 214 210 212 214 211 207 207 211 209 210 207 205 203 205 206 204 198 188 182 192 194 193 193 197 185 178 180 182 185 187 188 186 183 173 166 172 169 162 154 155 161 170 169 163 159 156 156 155 152
77 116 184 206 87 293 150 200 184 110 237 39 289 32 257 188 230 180 239 236 243 259 271 256 236 247 246 247 246 245 247 241 248 253 256 248 237 218 213 214 216 215 214 213 196 181 199 206 202 213 229 220 209 208 202 208 204 201 201 193 199 197 196 194 191 187 191 198 197 194 194 186 188 181 187 182 187 188 184 183 184 171 171 170 169 158 160 156 160 174 167 164 165 161 152 148 141
183 162 183 190 204 254 118 174 166 179 177 184 273 305 262 269 196 184 207 221 247 247 253 239 248 253 249 253 264 272 257 250 250 251 254 255 249 232 226 228 238 274 225 187 188 195 201 189 202 202 201 206 207 206 197 207 192 203 194 197 195 192 195 195 194 195 197 200 198 194 194 192 172 186 178 185 187 187 182 180 175 175 174 172 166 164 162 154 166 170 167 164 161 171 151 144 141
194 178 190 190 161 186 174 241 48 117 150 242 164 261 268 257 206 193 194 220 221 246 249 258 244 246 257 266 266 263 288 287 267 264 265 272 283 281 259 286 352 283 240 207 205 195 197 198 205 198 201 207 203 202 200 197 196 195 199 197 198 195 193 192 195 195 201 197 193 191 188 171 183 187 182 183 185 181 179 178 177 174 171 168 168 163 161 161 169 167 168 164 163 166 154 149 146